[[{"header":{"parameterUnit":"m.s-1","parameterCategory":1,"la1":30.2991,"la2":30.254,"lo1":-89.0895,"lo2":-89.0444,"dy":0.0017,"dx":0.0017,"nx":28,"ny":28,"refTime":"2024-03-27T21:00:00:Z","depth":0,"parameterNumber":2,"parameterNumberName":"U-component_of_WINDS"},"data":[0,0,0,0,0,0,0,0,0,0,0,0,0,0,0,0,0,0,0,0,0,0,0,0,0,0,0,0,0,0,0,0,0,0,0,0,0,0,0,0,0,0,0,0,0,0,0,0,0,0,0,0,0,0,0,0,0,0,0.0645,0.0646,0,0.0708,0.0709,0.071,0.074,0.074,0.074,0.074,0.0806,0.0808,0.081,0,0,0,0,0,0,0,0,0,0,0,0,0,0.0553,0.0554,0.0645,0.0646,0.0646,0.0708,0.0709,0.071,0.074,0.074,0.074,0.074,0.0806,0.0808,0.081,0,0,0,0,0,0,0,0,0,0,0,0,0,0.0602,0.0555,0.0645,0.0669,0.0672,0.0708,0.0709,0.071,0.074,0.074,0.074,0.074,0.0805,0.0808,0.081,0.0828,0,0,0.0819,0.082,0,0,0,0,0,0,0,0,0.0599,0.0606,0.0664,0.0667,0.067,0.0716,0.0701,0.075,0.074,0.0714,0.074,0.074,0.0776,0.0781,0.0794,0.0831,0.0834,0.0819,0.082,0.0822,0.0822,0,0,0,0,0,0,0,0.0596,0.0603,0.067,0.0665,0.0669,0.0678,0.0684,0.0711,0.0745,0.0716,0.0719,0.0726,0.0778,0.0791,0.0795,0.0835,0.0819,0.0821,0.0823,0.0824,0.0894,0.0894,0,0,0,0,0,0,0.0588,0.06,0.0668,0.0672,0.0634,0.0679,0.0687,0.0702,0.0745,0.0751,0.0726,0.0727,0.0786,0.0792,0.0798,0.0823,0.0822,0.0824,0.0826,0.0893,0.0894,0.0894,0,0,0,0,0,0,0.0586,0.0594,0.0665,0.0637,0.0646,0.0681,0.0697,0.0703,0.0716,0.0752,0.0758,0.0732,0.0786,0.0794,0.0821,0.0826,0.0825,0.0828,0.0893,0.0893,0.0894,0.0873,0,0,0,0,0,0,0.0583,0.0593,0.0599,0.0637,0.0648,0.0686,0.0697,0.0704,0.072,0.0722,0.076,0.0766,0.0787,0.0817,0.0824,0.083,0.083,0.0893,0.0893,0.0894,0.0873,0.0873,0.0872,0,0,0,0,0,0.058,0.0591,0.0599,0.0607,0.0656,0.0686,0.0693,0.0717,0.072,0.0728,0.0751,0.0764,0.0824,0.0819,0.0827,0.0834,0.0893,0.0893,0.0894,0.0874,0.0873,0.0872,0,0,0,0,0,0,0.0553,0.0596,0.0606,0.0629,0.0654,0.0691,0.0701,0.0715,0.074,0.0741,0.077,0.0778,0.0803,0.0821,0.0815,0.0855,0.086,0.0862,0.0842,0.0841,0.0841,0.0836,0.0832,0,0,0,0,0,0.055,0.057,0.0607,0.0623,0.0635,0.0666,0.068,0.0697,0.0724,0.0735,0.076,0.0787,0.0812,0.0828,0.0852,0.0876,0.0886,0.0885,0.0885,0.0884,0.0885,0.0902,0.0902,0.0896,0.0896,0.0896,0,0,0.0543,0.0569,0.058,0.0619,0.064,0.0662,0.0675,0.0696,0.0713,0.0738,0.0765,0.0785,0.0817,0.0843,0.0856,0.0859,0.089,0.0884,0.0883,0.0886,0.0902,0.0903,0.0903,0.0896,0.0896,0.0896,0,0,0.0542,0.0563,0.058,0.0602,0.0634,0.0655,0.0659,0.0695,0.0709,0.0737,0.0757,0.0778,0.082,0.0842,0.0859,0.0869,0.0883,0.0877,0.0873,0.0888,0.0889,0.0889,0.0895,0.0896,0.0878,0.0878,0.0878,0,0.053,0.0562,0.0587,0.0609,0.0626,0.065,0.0669,0.0688,0.0727,0.0739,0.0742,0.0797,0.082,0.0853,0.0855,0.0868,0.0875,0.0872,0.0887,0.0887,0.0888,0.0894,0.0895,0.0877,0.0877,0.0877,0.0877,0,0.0547,0.0569,0.0579,0.0616,0.0635,0.0654,0.0684,0.07,0.0716,0.0737,0.0766,0.0795,0.0827,0.0836,0.0851,0.0871,0.0873,0.0881,0.0886,0.0888,0.0893,0.0895,0.0876,0.0876,0.0876,0.0877,0,0,0.0529,0.0581,0.0585,0.0603,0.0641,0.0659,0.0681,0.0713,0.0727,0.0753,0.0773,0.081,0.0818,0.0837,0.0855,0.0869,0.0878,0.0876,0.0877,0.0876,0.0904,0.0898,0.09,0.0887,0.0888,0.0888,0.0902,0,0.0534,0.0573,0.0598,0.0628,0.065,0.0674,0.0694,0.072,0.0741,0.0764,0.0787,0.0813,0.0821,0.0834,0.0848,0.0873,0.0884,0.0873,0.0908,0.0908,0.0899,0.0903,0.0896,0.0907,0.0904,0.0905,0.0905,0,0.0545,0.0571,0.0603,0.0641,0.0652,0.0668,0.07,0.0721,0.0753,0.0767,0.079,0.0809,0.0835,0.0838,0.0875,0.0867,0.0883,0.0898,0.0899,0.0904,0.0907,0.0908,0.0912,0.0914,0.0908,0.0908,0.0908,0,0.053,0.0574,0.0599,0.0614,0.0658,0.067,0.0689,0.0721,0.0739,0.0767,0.078,0.0811,0.0828,0.0852,0.0879,0.0879,0.0915,0.092,0.0929,0.0928,0.0935,0.0934,0.0942,0.0944,0.0944,0.0944,0.0944,0,0.0533,0.0552,0.0593,0.0609,0.0632,0.0661,0.0683,0.0705,0.0733,0.0755,0.0778,0.0798,0.0832,0.0857,0.0879,0.0907,0.0915,0.0928,0.0934,0.0926,0.0925,0.0938,0.0938,0.0944,0.0944,0.0944,0.0944,0,0.052,0.0548,0.0578,0.0619,0.0629,0.0645,0.068,0.0697,0.072,0.0747,0.0755,0.0791,0.0822,0.0851,0.0892,0.0907,0.0936,0.0943,0.0925,0.0928,0.0936,0.0935,0.0952,0.0957,0.0955,0.0955,0.0955,0,0.0521,0.0536,0.0579,0.0595,0.0613,0.0639,0.0658,0.0687,0.0706,0.0745,0.0758,0.079,0.0818,0.0866,0.0896,0.0929,0.0937,0.0941,0.0942,0.0935,0.0939,0.0938,0.094,0.094,0.094,0.094,0.094,0,0.0519,0.0533,0.0558,0.059,0.0612,0.0638,0.0665,0.0677,0.0713,0.0734,0.0765,0.0786,0.0829,0.0862,0.0898,0.0919,0.0936,0.094,0.0944,0.0936,0.0926,0.0933,0.0924,0.0939,0.0939,0.0939,0.0939,0.0939,0.0513,0.0529,0.0562,0.0591,0.0614,0.064,0.0659,0.0684,0.0711,0.0748,0.0764,0.0797,0.0831,0.0881,0.0902,0.0929,0.0933,0.0938,0.094,0.0941,0.094,0.0921,0.0936,0.0936,0.0936,0.0936,0.0936,0,0.0514,0.0536,0.0563,0.06,0.0624,0.0637,0.0669,0.0688,0.0716,0.0746,0.0773,0.0811,0.0843,0.0877,0.0911,0.0927,0.0935,0.0935,0.0934,0.0939,0.0934,0.0927,0.0927,0.0927,0.0927,0.0927,0.0927,0.0927,0.0516,0.0544,0.0562,0.0603,0.0626,0.0658,0.0675,0.0699,0.0724,0.0764,0.0791,0.0813,0.0846,0.0883,0.0914,0.0924,0.0936,0.0933,0.0945,0.0939,0.0939,0.094,0.0934,0.0935,0.0935,0.0949,0.0949,0.0949]},{"header":{"parameterUnit":"m.s-1","parameterCategory":1,"la1":30.2991,"la2":30.254,"lo1":-89.0895,"lo2":-89.0444,"dy":0.0017,"dx":0.0017,"nx":28,"ny":28,"refTime":"2024-03-27T21:00:00:Z","depth":0,"parameterNumber":3,"parameterNumberName":"V-component_of_WINDS"},"data":[0,0,0,0,0,0,0,0,0,0,0,0,0,0,0,0,0,0,0,0,0,0,0,0,0,0,0,0,0,0,0,0,0,0,0,0,0,0,0,0,0,0,0,0,0,0,0,0,0,0,0,0,0,0,0,0,0,0,-4.6437,-4.6437,0,-4.6484,-4.6485,-4.6485,-4.65,-4.65,-4.65,-4.65,-4.6544,-4.6545,-4.6546,0,0,0,0,0,0,0,0,0,0,0,0,0,-4.6356,-4.6357,-4.6437,-4.6437,-4.6438,-4.6484,-4.6485,-4.6485,-4.65,-4.65,-4.65,-4.65,-4.6543,-4.6545,-4.6547,0,0,0,0,0,0,0,0,0,0,0,0,0,-4.6396,-4.6358,-4.6437,-4.6451,-4.6453,-4.6484,-4.6485,-4.6486,-4.65,-4.65,-4.65,-4.65,-4.6543,-4.6545,-4.6547,-4.6566,0,0,-4.6553,-4.6554,0,0,0,0,0,0,0,0,-4.6394,-4.6399,-4.6448,-4.645,-4.6452,-4.6486,-4.6473,-4.6512,-4.6501,-4.6482,-4.65,-4.6499,-4.6525,-4.6528,-4.6538,-4.6568,-4.657,-4.6553,-4.6554,-4.6555,-4.6556,0,0,0,0,0,0,0,-4.6391,-4.6397,-4.6455,-4.6449,-4.6451,-4.6454,-4.646,-4.648,-4.6504,-4.6484,-4.6485,-4.6491,-4.6525,-4.6536,-4.6539,-4.657,-4.6553,-4.6555,-4.6556,-4.6557,-4.662,-4.6621,0,0,0,0,0,0,-4.6386,-4.6394,-4.6454,-4.6457,-4.6422,-4.6456,-4.6462,-4.6475,-4.6504,-4.6508,-4.6491,-4.6491,-4.6532,-4.6536,-4.654,-4.6566,-4.6555,-4.6557,-4.6558,-4.662,-4.662,-4.6621,0,0,0,0,0,0,-4.6384,-4.6391,-4.6452,-4.6426,-4.6434,-4.6458,-4.6473,-4.6477,-4.6487,-4.651,-4.6514,-4.6497,-4.6532,-4.6537,-4.656,-4.6567,-4.6558,-4.656,-4.6619,-4.662,-4.662,-4.6615,0,0,0,0,0,0,-4.6382,-4.6391,-4.6398,-4.6426,-4.6435,-4.6472,-4.6473,-4.6478,-4.6491,-4.6492,-4.6516,-4.652,-4.6532,-4.6557,-4.6562,-4.657,-4.6562,-4.6619,-4.6619,-4.662,-4.6615,-4.6616,-4.6616,0,0,0,0,0,-4.6379,-4.6394,-4.6399,-4.6406,-4.6446,-4.6472,-4.6477,-4.6492,-4.6491,-4.6499,-4.6514,-4.6519,-4.6566,-4.6559,-4.6565,-4.6573,-4.6618,-4.6619,-4.662,-4.6615,-4.6616,-4.6616,0,0,0,0,0,0,-4.6364,-4.6397,-4.6403,-4.6428,-4.6447,-4.6475,-4.6485,-4.6492,-4.6511,-4.6511,-4.6527,-4.6533,-4.6555,-4.6566,-4.6558,-4.6594,-4.6592,-4.6594,-4.6586,-4.6587,-4.6588,-4.6584,-4.6563,0,0,0,0,0,-4.6364,-4.6383,-4.6411,-4.643,-4.644,-4.6461,-4.6473,-4.6483,-4.6503,-4.6511,-4.6527,-4.6545,-4.6564,-4.6576,-4.6595,-4.6617,-4.6623,-4.6626,-4.6626,-4.6627,-4.6629,-4.6643,-4.6644,-4.6624,-4.6624,-4.6624,0,0,-4.6363,-4.6384,-4.6395,-4.6428,-4.6444,-4.6463,-4.6467,-4.6487,-4.6501,-4.6513,-4.6536,-4.6549,-4.6571,-4.6594,-4.6604,-4.6604,-4.6636,-4.6628,-4.6629,-4.663,-4.6644,-4.6646,-4.6647,-4.6625,-4.6625,-4.6624,0,0,-4.6371,-4.6389,-4.6408,-4.6425,-4.645,-4.6465,-4.6469,-4.6496,-4.6506,-4.653,-4.6539,-4.6556,-4.6588,-4.6603,-4.6615,-4.6633,-4.6638,-4.6638,-4.6641,-4.6655,-4.6656,-4.6658,-4.6665,-4.6667,-4.6639,-4.6639,-4.6639,0,-4.6366,-4.6397,-4.6415,-4.6436,-4.645,-4.6464,-4.6483,-4.6498,-4.6527,-4.6537,-4.6536,-4.6578,-4.6593,-4.6621,-4.6625,-4.6634,-4.664,-4.6635,-4.6655,-4.6657,-4.6658,-4.6665,-4.6668,-4.6639,-4.6639,-4.6639,-4.6639,0,-4.6391,-4.6412,-4.6424,-4.6455,-4.647,-4.6489,-4.651,-4.6524,-4.6533,-4.6547,-4.6572,-4.6591,-4.6615,-4.6622,-4.663,-4.6651,-4.665,-4.6652,-4.665,-4.666,-4.6667,-4.6669,-4.6639,-4.6639,-4.6639,-4.6639,0,0,-4.6389,-4.6432,-4.6436,-4.6451,-4.6482,-4.6498,-4.6518,-4.6543,-4.6555,-4.6575,-4.6592,-4.662,-4.6623,-4.6637,-4.6647,-4.6659,-4.6672,-4.6659,-4.666,-4.6662,-4.6697,-4.6696,-4.6699,-4.6677,-4.6677,-4.6677,-4.6696,0,-4.6402,-4.6441,-4.6459,-4.6489,-4.6509,-4.6524,-4.6541,-4.6562,-4.6576,-4.6594,-4.6609,-4.6629,-4.6631,-4.664,-4.6652,-4.6668,-4.668,-4.6667,-4.6692,-4.6693,-4.6687,-4.6702,-4.67,-4.6716,-4.6699,-4.6699,-4.6699,0,-4.6422,-4.6445,-4.6478,-4.6508,-4.6517,-4.6533,-4.6558,-4.6576,-4.6599,-4.6609,-4.6626,-4.6636,-4.6658,-4.6655,-4.6684,-4.6675,-4.6687,-4.6696,-4.6697,-4.67,-4.6697,-4.6705,-4.6722,-4.6724,-4.6703,-4.6703,-4.6703,0,-4.6419,-4.6458,-4.6483,-4.6495,-4.6531,-4.6542,-4.6557,-4.658,-4.6595,-4.6616,-4.6626,-4.6649,-4.6662,-4.6679,-4.6695,-4.6692,-4.6724,-4.6722,-4.6732,-4.6732,-4.6737,-4.6737,-4.6756,-4.6745,-4.6745,-4.6744,-4.6744,0,-4.6431,-4.6451,-4.6483,-4.6498,-4.6521,-4.6541,-4.6563,-4.6578,-4.6599,-4.6618,-4.6631,-4.6648,-4.6668,-4.6687,-4.67,-4.6723,-4.6728,-4.6736,-4.674,-4.6735,-4.6734,-4.6743,-4.6742,-4.6745,-4.6745,-4.6745,-4.6745,0,-4.6431,-4.6453,-4.6482,-4.6514,-4.6523,-4.6538,-4.6565,-4.6581,-4.6597,-4.662,-4.6626,-4.665,-4.6674,-4.6692,-4.6722,-4.6731,-4.6755,-4.6758,-4.6748,-4.675,-4.6759,-4.6758,-4.6784,-4.6789,-4.6774,-4.6774,-4.6774,0,-4.6438,-4.6454,-4.6489,-4.6503,-4.6519,-4.6541,-4.6557,-4.6578,-4.6594,-4.6623,-4.6635,-4.666,-4.6681,-4.6717,-4.6737,-4.676,-4.6764,-4.6772,-4.6767,-4.6763,-4.6765,-4.6764,-4.6766,-4.6772,-4.6772,-4.6772,-4.6772,0,-4.6447,-4.6458,-4.6481,-4.6509,-4.6529,-4.6551,-4.6573,-4.6584,-4.6608,-4.6625,-4.6651,-4.6667,-4.67,-4.6724,-4.675,-4.6764,-4.6772,-4.6774,-4.6778,-4.6773,-4.6767,-4.6771,-4.675,-4.6773,-4.6773,-4.6773,-4.6773,-4.6773,-4.6451,-4.6467,-4.6495,-4.6521,-4.654,-4.6562,-4.6578,-4.6598,-4.662,-4.6649,-4.666,-4.6686,-4.671,-4.6746,-4.6761,-4.6781,-4.6781,-4.6786,-4.6787,-4.6788,-4.6789,-4.6764,-4.6785,-4.6785,-4.6785,-4.6785,-4.6785,0,-4.6462,-4.6482,-4.6505,-4.6538,-4.6558,-4.6567,-4.6593,-4.6609,-4.6633,-4.6655,-4.6677,-4.6707,-4.6731,-4.6754,-4.6779,-4.6791,-4.6796,-4.6797,-4.6796,-4.68,-4.6786,-4.6781,-4.6793,-4.6793,-4.6793,-4.6793,-4.6793,-4.6793,-4.647,-4.6498,-4.6512,-4.655,-4.6569,-4.6596,-4.6611,-4.663,-4.6649,-4.6682,-4.6704,-4.6719,-4.6742,-4.6769,-4.6792,-4.6798,-4.6807,-4.6807,-4.6814,-4.6801,-4.68,-4.6799,-4.6794,-4.6809,-4.6809,-4.6826,-4.6826,-4.6826]}]]